Regional Weather Roundup
Issued by NWS

Home | Current Version | Previous Version | Graphics & Text | Print | Product List | Glossary On
Versions: 1 2 3 4 5 6 7 8 9 10 11 12 13 14 15 16 17 18 19 20 21 22 23 24 25 26 27 28 29 30 31 32 33 34 35 36 37 38 39 40 41 42 43 44 45 46 47 48 49 50
000
ASUS43 KLOT 051508
RWRIL

ILLINOIS REGIONAL WEATHER ROUNDUP
NATIONAL WEATHER SERVICE CHICAGO/ROMEOVILLE IL
1000 AM CDT TUE MAY 05 2015

NOTE: "FAIR" INDICATES FEW OR NO CLOUDS BELOW 12,000 FEET WITH NO
SIGNIFICANT WEATHER AND/OR OBSTRUCTIONS TO VISIBILITY.

* THESE STATIONS ARE NOT UNDER NWS QUALITY CONTROL. THEY ALSO MAY NOT
  REPORT WEATHER SUCH AS PRECIPITATION OR FOG.

ILZ001-002-007-009-015-016-024-051600-
NORTHWEST ILLINOIS

CITY           SKY/WX    TMP DP  RH WIND       PRES   REMARKS
MOLINE         CLOUDY    61  58  90 E8        30.17S FOG
STERLING*      CLOUDY    57  55  94 E9        30.20S
$$

ILZ003-004-008-010-011-017-018-051600-
NORTH CENTRAL ILLINOIS

CITY           SKY/WX    TMP DP  RH WIND       PRES   REMARKS
ROCKFORD       LGT RAIN  55  51  86 E7        30.24S
FREEPORT*      LGT RAIN  52  50  94 NE9       30.24S
DE KALB*       CLOUDY    55  53  94 E10       30.23R
PERU*          CLOUDY    58  58  98 E7        30.19F FOG
$$

ILZ005-006-012>014-019>023-051600-
NORTHEAST ILLINOIS

CITY           SKY/WX    TMP DP  RH WIND       PRES   REMARKS
CHICAGO-OHARE  CLOUDY    50  49  96 E10       30.22R
CHICAGO-MIDWAY CLOUDY    53  52  96 NE10      30.22S FOG
AURORA         CLOUDY    57  53  86 E10       30.22R FOG
LANSING*       LGT RAIN  51  49  93 NE5       30.21F
JOLIET*        LGT RAIN  57  56  97 NE5       30.21R
WAUKEGAN       LGT RAIN  48  46  93 NE9       30.25R
DUPAGE AIRPORT CLOUDY    54  53  97 NE12      30.22R FOG
KANKAKEE*      PTSUNNY   69  63  80 SE8       30.19S
WHEELING       CLOUDY    49  47  93 NE6       30.25S
MORRIS*        CLOUDY    57  56  96 E6        30.18R FOG
ROMEOVILLE*    LGT RAIN  55  54  97 NE5       30.22R
NORTHERLY ISL    N/A     47  45  93 NE3         N/A
$$

LMZ740>746-051600-
SOUTHERN LAKE MICHIGAN

STATION/POSITION SKY/WX   TEMP    WIND        PRES    VSBY  WAVE
                          AIR SEA DIR/SP/G                  HT/PER
                          (F)     (DEG/KT/KT) (MB)    (MI)  (FT/S)
HARRISON CRIB              46      80/ 16/ 19   N/A
BURNHAM HARBOR             47      30/  4/  7   N/A
CALUMET HARBOR             47      60/  5/ 11   N/A
BURNS HARBOR               51      50/  7/  8 1023.4R
MICHIGAN CITY              51      30/ 11/ 13   N/A
MICHIGAN CITY 6N           50 49   70/  6/ 10   N/A           2/ 3
ST. JOSEPH                 53 49  140/  6/  8   N/A           1/ 2
$$

ILZ025>027-034>036-040-047-049-050-058-095>099-051600-
WEST-CENTRAL ILLINOIS

CITY           SKY/WX    TMP DP  RH WIND       PRES   REMARKS
QUINCY         SUNNY     72  59  63 SW10      30.16R
GALESBURG*     CLOUDY    66  63  89 SE6       30.17S FOG
MACOMB*        MOSUNNY   70  65  85 SE5       30.18S
JACKSONVILLE*  MOSUNNY   80  58  46 SW14      30.17S HX  81
PITTSFIELD*    SUNNY     77  57  49 SW13      30.17F
$$

ILZ028>032-037-038-041>044-048-051>054-059>061-051600-
CENTRAL ILLINOIS

CITY           SKY/WX    TMP DP  RH WIND       PRES   REMARKS
PONTIAC        CLOUDY    68  65  90 SE9       30.19R FOG
BLOOMINGTON    MOSUNNY   73  65  76 S14       30.18F
DECATUR        MOSUNNY   74  57  55 SW13      30.19F
PEORIA         MOSUNNY   72  62  71 SE8       30.17S
LACON*         CLOUDY    67  62  84 SE6       30.18S HAZE
LINCOLN*       SUNNY     75  61  60 S6        30.15F
SPRINGFIELD    PTSUNNY   77  58  51 SW13      30.17S
TAYLORVILLE    MOSUNNY   75  55  50 SW10      30.19S
$$

ILZ033-039-045-046-055>057-062-063-051600-
EAST-CENTRAL ILLINOIS

CITY           SKY/WX    TMP DP  RH WIND       PRES   REMARKS
CHAMPAIGN      MOSUNNY   76  55  48 SW14      30.19F
DANVILLE*      MOSUNNY   73  59  62 SW7       30.18S
RANTOUL*       MOSUNNY   74  62  66 SW8       30.19S
MATTOON        PTSUNNY   76  54  46 SW9       30.20S
$$

ILZ079-100>102-051600-
SOUTHWEST ILLINOIS

CITY           SKY/WX    TMP DP  RH WIND       PRES   REMARKS
ALTON          MOSUNNY   75 N/A N/A SW12      30.20S
BELLEVILLE     MOSUNNY   77  59  54 VRB2      30.19F
CAHOKIA*       PTSUNNY   76  56  49 SW8       30.20S
SPARTA*        SUNNY     74  56  52 SW8       30.22S
$$

ILZ064>066-069>071-074>076-080>082-084>086-088>090-092>094-051600-
SOUTH-CENTRAL ILLINOIS

CITY           SKY/WX    TMP DP  RH WIND       PRES   REMARKS
CARBONDALE     MOSUNNY   77  57  50 S8        30.23S
CAIRO*         SUNNY     76  57  52 S9        30.23F
EFFINGHAM*     MOSUNNY   77  50  38 S7        30.23S
MARION         MOSUNNY   77  57  50 SW8       30.24S
MT. VERNON     MOSUNNY  N/A N/A N/A SW9       30.23S
CENTRALIA*     SUNNY     85  53  33 SW7       30.22S HX  83
SALEM*         MOSUNNY   74  55  50 S6        30.22S
METROPOLIS*    PTSUNNY   75  58  54 CALM      30.24S
$$

ILZ067-068-072-073-078-083-087-091-051600-
SOUTHEAST ILLINOIS

CITY           SKY/WX    TMP DP  RH WIND       PRES   REMARKS
LAWRENCEVILLE  SUNNY     79  56  45 SW15      30.23S HX  80
FLORA*         SUNNY     77  54  45 SW12      30.23S
FAIRFIELD*     MOSUNNY   78  54  42 SW9       30.22S
HARRISBURG*    SUNNY     77  55  46 SW10      30.25S
ROBINSON*      SUNNY     78  55  44 W13G20    30.23S
CARMI*         SUNNY     78  51  39 SW14      30.24S
$$

ABBREVIATIONS USED IN REMARKS
   TC - TEMPERATURE IN CELSIUS
  WCI - WIND CHILL INDEX
   HX - HEAT INDEX
  VSB - VISIBILITY
$$



USA.gov is the U.S. government's official web portal to all federal, state and local government web resources and services.